Location: *
(43.0409°N, 0.1694°E)
Time: 06:41:13
(UTC+00:00)

Meteor 2-6 Rocket - Visible Passes

Search period start: 20 April 2024 00:00
Search period end: 30 April 2024 00:00
Orbit: 805 x 914 km, 81.3° (Epoch: 19 April)

Date Brightness Start Highest point End Pass type
(mag) Time Alt. Az. Time Alt. Az. Time Alt. Az.
20 Apr 4.6 01:43:38 61° NW 01:43:38 61° NW 01:48:48 10° N visible
20 Apr 6.4 03:26:39 10° WNW 03:27:11 10° WNW 03:27:42 10° NW visible
20 Apr 6.4 23:52:11 17° ENE 23:52:11 17° ENE 23:54:50 10° NE visible
21 Apr 4.6 01:34:23 61° NNW 01:34:23 61° NNW 01:39:27 10° N visible
21 Apr 6.4 03:16:44 10° WNW 03:17:48 10° WNW 03:18:52 10° NW visible
21 Apr 6.4 23:42:55 16° ENE 23:42:55 16° ENE 23:45:25 10° NE visible
22 Apr 4.6 01:25:07 60° NNW 01:25:07 60° NNW 01:30:07 10° N visible
22 Apr 6.4 03:07:18 10° WNW 03:08:25 11° WNW 03:09:49 10° NW visible
22 Apr 6.4 23:33:38 16° ENE 23:33:38 16° ENE 23:35:59 10° NE visible
23 Apr 4.7 01:15:50 60° NNW 01:15:50 60° NNW 01:20:46 10° N visible
23 Apr 6.4 02:58:02 11° WNW 02:59:02 11° WNW 03:00:42 10° NW visible
23 Apr 6.5 23:24:21 15° ENE 23:24:21 15° ENE 23:26:32 10° NE visible
24 Apr 4.7 01:06:32 60° NNW 01:06:32 60° NNW 01:11:25 10° N visible
24 Apr 6.4 02:48:44 11° WNW 02:49:40 11° WNW 02:51:33 10° NW visible
24 Apr 6.5 23:15:02 15° ENE 23:15:02 15° ENE 23:17:05 10° NE visible
25 Apr 4.7 00:57:14 60° NNW 00:57:14 60° NNW 01:02:04 10° N visible
25 Apr 6.4 02:39:25 11° WNW 02:40:17 12° WNW 02:42:21 10° NW visible
25 Apr 6.5 23:05:43 14° ENE 23:05:43 14° ENE 23:07:38 10° NE visible
26 Apr 4.7 00:47:54 61° N 00:47:54 61° N 00:52:43 10° N visible
26 Apr 6.4 02:30:06 12° WNW 02:30:55 12° WNW 02:33:09 10° NW visible
26 Apr 6.5 22:56:23 14° ENE 22:56:23 14° ENE 22:58:10 10° NE visible
27 Apr 4.7 00:38:34 61° N 00:38:34 61° N 00:43:22 10° N visible
27 Apr 6.4 02:20:45 12° WNW 02:21:33 12° WNW 02:23:56 10° NW visible
27 Apr 6.5 22:47:02 13° ENE 22:47:02 13° ENE 22:48:41 10° NE visible
28 Apr 4.7 00:29:13 62° N 00:29:13 62° N 00:34:00 10° N visible
28 Apr 6.4 02:11:24 13° WNW 02:12:10 13° WNW 02:14:42 10° NW visible
28 Apr 6.5 22:37:40 13° ENE 22:37:40 13° ENE 22:39:11 10° NE visible
29 Apr 4.7 00:19:51 62° N 00:19:51 62° N 00:24:38 10° N visible
29 Apr 6.4 02:02:02 13° WNW 02:02:47 13° WNW 02:05:28 10° NW visible
29 Apr 6.5 22:28:17 12° ENE 22:28:17 12° ENE 22:29:41 10° ENE visible
